• în România
  • Lista ţărilor
  • Pe 7 zile
  • Temperatura apei
  • Hartă satelitară
  • Meteo pe hartă
  • Widget-uri
  • user-avatar
    Intrare

    Meteo pe oră la Ali Bayramli

    Astăzi, 26 Iulie, Miercuri

    Timp Temperatura Precipitaţii Vânt Presiune Umiditate
    00:00 +29°C° 0 mm 4 m/s 752 mmHg 52%
    01:00 +29°C° 0 mm 3 m/s 752 mmHg 53%
    02:00 +28°C° 0 mm 3 m/s 752 mmHg 55%
    03:00 +28°C° 0 mm 3 m/s 752 mmHg 56%
    04:00 +28°C° 0 mm 3 m/s 752 mmHg 56%
    05:00 +28°C° 0 mm 3 m/s 752 mmHg 55%
    06:00 +28°C° 0 mm 2 m/s 752 mmHg 54%
    07:00 +30°C° 0 mm 2 m/s 752 mmHg 49%
    08:00 +31°C° 0 mm 2 m/s 753 mmHg 43%
    09:00 +33°C° 0 mm 1 m/s 753 mmHg 40%
    10:00 +35°C° 0 mm 2 m/s 753 mmHg 36%
    11:00 +36°C° 0 mm 2 m/s 753 mmHg 33%
    12:00 +37°C° 0 mm 3 m/s 753 mmHg 30%
    13:00 +38°C° 0 mm 4 m/s 752 mmHg 29%
    14:00 +39°C° 0 mm 5 m/s 752 mmHg 29%
    15:00 +39°C° 0 mm 6 m/s 752 mmHg 28%
    16:00 +38°C° 0 mm 6 m/s 752 mmHg 29%
    17:00 +38°C° 0 mm 6 m/s 752 mmHg 31%
    18:00 +36°C° 0 mm 7 m/s 753 mmHg 32%
    19:00 +35°C° 0 mm 6 m/s 753 mmHg 35%
    20:00 +34°C° 0 mm 5 m/s 753 mmHg 38%
    21:00 +32°C° 0 mm 5 m/s 753 mmHg 41%
    22:00 +32°C° 0 mm 4 m/s 754 mmHg 44%
    23:00 +30°C° 0 mm 4 m/s 754 mmHg 47%

    Mâine, 27 Iulie, Joi

    Timp Temperatura Precipitaţii Vânt Presiune Umiditate
    00:00 +29°C° 0 mm 3 m/s 754 mmHg 49%
    01:00 +29°C° 0 mm 3 m/s 754 mmHg 50%
    02:00 +29°C° 0 mm 2 m/s 754 mmHg 52%
    03:00 +28°C° 0 mm 2 m/s 754 mmHg 53%
    04:00 +28°C° 0 mm 2 m/s 754 mmHg 51%
    05:00 +29°C° 0 mm 2 m/s 754 mmHg 50%
    06:00 +29°C° 0 mm 2 m/s 754 mmHg 49%
    07:00 +31°C° 0 mm 2 m/s 755 mmHg 43%
    08:00 +34°C° 0 mm 2 m/s 755 mmHg 38%
    09:00 +35°C° 0 mm 2 m/s 755 mmHg 33%
    10:00 +37°C° 0 mm 2 m/s 755 mmHg 30%
    11:00 +38°C° 0 mm 2 m/s 754 mmHg 27%
    12:00 +39°C° 0 mm 1 m/s 754 mmHg 25%
    13:00 +40°C° 0 mm 2 m/s 754 mmHg 24%
    14:00 +40°C° 0 mm 3 m/s 754 mmHg 23%
    15:00 +42°C° 0 mm 4 m/s 753 mmHg 23%
    16:00 +41°C° 0 mm 5 m/s 753 mmHg 25%
    17:00 +39°C° 0 mm 5 m/s 753 mmHg 27%
    18:00 +38°C° 0 mm 6 m/s 754 mmHg 29%
    19:00 +36°C° 0 mm 5 m/s 754 mmHg 31%
    20:00 +35°C° 0 mm 4 m/s 754 mmHg 34%
    21:00 +34°C° 0 mm 3 m/s 755 mmHg 36%
    22:00 +33°C° 0 mm 3 m/s 754 mmHg 37%
    23:00 +31°C° 0 mm 2 m/s 754 mmHg 38%

    Poimâine, 28 Iulie, Vineri

    Timp Temperatura Precipitaţii Vânt Presiune Umiditate
    00:00 +31°C° 0 mm 2 m/s 754 mmHg 39%
    01:00 +30°C° 0 mm 1 m/s 754 mmHg 39%
    02:00 +30°C° 0 mm 1 m/s 754 mmHg 40%
    03:00 +30°C° 0 mm 1 m/s 754 mmHg 41%
    04:00 +30°C° 0 mm 1 m/s 754 mmHg 40%
    05:00 +31°C° 0 mm 1 m/s 754 mmHg 38%
    06:00 +31°C° 0 mm 1 m/s 754 mmHg 37%
    07:00 +33°C° 0 mm 1 m/s 754 mmHg 34%
    08:00 +35°C° 0 mm 1 m/s 754 mmHg 31%
    09:00 +36°C° 0 mm 1 m/s 754 mmHg 28%
    10:00 +38°C° 0 mm 2 m/s 754 mmHg 26%
    11:00 +40°C° 0 mm 3 m/s 753 mmHg 24%
    12:00 +42°C° 0 mm 3 m/s 753 mmHg 22%
    13:00 +42°C° 0 mm 4 m/s 753 mmHg 22%
    14:00 +42°C° 0 mm 5 m/s 752 mmHg 22%
    15:00 +43°C° 0 mm 5 m/s 752 mmHg 22%
    16:00 +41°C° 0 mm 6 m/s 752 mmHg 25%
    17:00 +40°C° 0 mm 6 m/s 752 mmHg 29%
    18:00 +38°C° 0 mm 7 m/s 752 mmHg 32%
    19:00 +35°C° 0 mm 6 m/s 752 mmHg 38%
    20:00 +34°C° 0 mm 5 m/s 752 mmHg 45%
    21:00 +32°C° 0 mm 4 m/s 753 mmHg 51%
    22:00 +31°C° 0 mm 3 m/s 753 mmHg 54%
    23:00 +30°C° 0 mm 2 m/s 753 mmHg 57%

    29 Iulie, Sâmbătă

    Timp Temperatura Precipitaţii Vânt Presiune Umiditate
    00:00 +30°C° 0 mm 2 m/s 753 mmHg 60%
    01:00 +30°C° 0 mm 1 m/s 752 mmHg 60%
    02:00 +29°C° 0 mm 1 m/s 752 mmHg 61%
    03:00 +29°C° 0 mm 1 m/s 752 mmHg 61%
    04:00 +29°C° 0 mm 1 m/s 752 mmHg 60%
    05:00 +30°C° 0 mm 1 m/s 753 mmHg 58%
    06:00 +30°C° 0 mm 1 m/s 753 mmHg 57%
    07:00 +32°C° 0 mm 2 m/s 753 mmHg 52%
    08:00 +34°C° 0 mm 2 m/s 753 mmHg 47%
    09:00 +35°C° 0 mm 2 m/s 753 mmHg 42%
    10:00 +37°C° 0 mm 2 m/s 753 mmHg 38%
    11:00 +39°C° 0 mm 2 m/s 752 mmHg 34%
    12:00 +40°C° 0 mm 2 m/s 752 mmHg 30%
    13:00 +42°C° 0 mm 3 m/s 752 mmHg 29%
    14:00 +42°C° 0 mm 3 m/s 751 mmHg 27%
    15:00 +43°C° 0 mm 4 m/s 751 mmHg 26%
    16:00 +42°C° 0 mm 4 m/s 751 mmHg 28%
    17:00 +41°C° 0 mm 5 m/s 752 mmHg 31%
    18:00 +40°C° 0 mm 5 m/s 752 mmHg 33%
    19:00 +37°C° 0 mm 4 m/s 752 mmHg 37%
    20:00 +36°C° 0 mm 4 m/s 753 mmHg 41%
    21:00 +34°C° 0 mm 3 m/s 753 mmHg 45%
    22:00 +34°C° 0 mm 3 m/s 754 mmHg 45%
    23:00 +34°C° 0 mm 4 m/s 754 mmHg 44%

    30 Iulie, Duminică

    Timp Temperatura Precipitaţii Vânt Presiune Umiditate
    00:00 +34°C° 0 mm 4 m/s 754 mmHg 44%
    01:00 +33°C° 0 mm 4 m/s 754 mmHg 45%
    02:00 +33°C° 0 mm 5 m/s 755 mmHg 45%
    03:00 +33°C° 0 mm 5 m/s 755 mmHg 46%
    04:00 +33°C° 0 mm 5 m/s 755 mmHg 46%
    05:00 +33°C° 0 mm 5 m/s 756 mmHg 46%
    06:00 +33°C° 0 mm 5 m/s 756 mmHg 46%
    07:00 +35°C° 0 mm 5 m/s 757 mmHg 43%
    08:00 +36°C° 0 mm 5 m/s 757 mmHg 39%
    09:00 +37°C° 0 mm 5 m/s 757 mmHg 35%
    10:00 +40°C° 0 mm 5 m/s 757 mmHg 33%
    11:00 +41°C° 0 mm 5 m/s 757 mmHg 31%
    12:00 +42°C° 0 mm 6 m/s 757 mmHg 29%
    13:00 +43°C° 0 mm 7 m/s 756 mmHg 29%
    14:00 +43°C° 0 mm 8 m/s 756 mmHg 29%
    15:00 +43°C° 0 mm 9 m/s 756 mmHg 29%
    16:00 +42°C° 0 mm 10 m/s 756 mmHg 30%
    17:00 +40°C° 0 mm 10 m/s 756 mmHg 32%
    18:00 +38°C° 0 mm 11 m/s 757 mmHg 34%
    19:00 +37°C° 0 mm 10 m/s 757 mmHg 36%
    20:00 +36°C° 0 mm 10 m/s 757 mmHg 37%
    21:00 +34°C° 0 mm 9 m/s 758 mmHg 39%
    22:00 +34°C° 0 mm 8 m/s 758 mmHg 41%
    23:00 +33°C° 0 mm 8 m/s 758 mmHg 42%

    31 Iulie, Luni

    Timp Temperatura Precipitaţii Vânt Presiune Umiditate
    00:00 +33°C° 0 mm 7 m/s 758 mmHg 44%
    01:00 +33°C° 0 mm 6 m/s 758 mmHg 45%
    02:00 +32°C° 0 mm 5 m/s 758 mmHg 47%
    03:00 +32°C° 0 mm 4 m/s 758 mmHg 48%
    04:00 +32°C° 0 mm 4 m/s 759 mmHg 49%
    05:00 +32°C° 0 mm 4 m/s 759 mmHg 49%
    06:00 +32°C° 0 mm 4 m/s 759 mmHg 49%
    07:00 +33°C° 0 mm 4 m/s 760 mmHg 45%
    08:00 +35°C° 0 mm 5 m/s 760 mmHg 40%
    09:00 +36°C° 0 mm 5 m/s 760 mmHg 36%
    10:00 +38°C° 0 mm 6 m/s 760 mmHg 34%
    11:00 +39°C° 0 mm 7 m/s 760 mmHg 31%
    12:00 +40°C° 0 mm 7 m/s 759 mmHg 29%
    13:00 +40°C° 0 mm 8 m/s 759 mmHg 30%
    14:00 +40°C° 0 mm 9 m/s 759 mmHg 31%
    15:00 +40°C° 0 mm 9 m/s 759 mmHg 32%
    16:00 +39°C° 0 mm 9 m/s 759 mmHg 35%
    17:00 +37°C° 0 mm 9 m/s 759 mmHg 38%
    18:00 +35°C° 0 mm 9 m/s 759 mmHg 41%
    19:00 +34°C° 0 mm 8 m/s 759 mmHg 43%
    20:00 +34°C° 0 mm 7 m/s 760 mmHg 45%
    21:00 +33°C° 0 mm 7 m/s 760 mmHg 47%
    22:00 +32°C° 0 mm 6 m/s 760 mmHg 49%
    23:00 +32°C° 0 mm 5 m/s 760 mmHg 50%
    Arată mai mult